JAL592 LROP-RJTT

Flight info

Callsign JAL592
Flight time 3h 48m
Altitude 33000
Route IDARU DCT DINRO N743 UDROS UN743 GAKSU DCT SIN UN644 KARDE/N0496F350 UN644 ROLIN N644 LAGAS DCT SUBUT DCT LEYLA/K0907F350 DCT KORAG DCT ADREM DCT REMOL/K0906S1070 DCT OMDAX/K0902S1130 DCT KEVOB DCT LADIX/K0889S1190 DCT AGAVO/N0486F390 DCT LANAT DCT SAMON OSPAN KAVEV DROMP
Aircraft A35K/H-SDE2E3GHIJ3J4J5LM1ORWXY/LB1D1

Departure

Time 2026-05-05 17:14
Airport Bucharest Henri Coandă International Airport (LROP)

Arrival

Time 2026-05-05 21:02
Airport Tokyo Haneda International Airport (RJTT)
Time Latitude Longitude Altitude Speed Heading
2026-05-05 16:35 44.57131 26.08245 309 ft 0 kts 219°
2026-05-05 16:57 44.57134 26.08248 328 ft 2 kts 219°
2026-05-05 16:57 44.57146 26.08264 324 ft 2 kts 227°
2026-05-05 16:58 44.57156 26.08282 324 ft 2 kts 237°
2026-05-05 16:58 44.57164 26.08302 324 ft 2 kts 252°
2026-05-05 16:58 44.57167 26.08325 324 ft 2 kts 275°
2026-05-05 16:58 44.57163 26.08347 324 ft 2 kts 302°
2026-05-05 16:59 44.57152 26.08364 324 ft 2 kts 329°
2026-05-05 16:59 44.57147 26.08368 324 ft 1 kts 341°
2026-05-05 16:59 44.57146 26.08369 324 ft 0 kts 343°
2026-05-05 16:59 44.57149 26.08367 324 ft 1 kts 343°
2026-05-05 17:00 44.57155 26.08365 324 ft 0 kts 343°
2026-05-05 17:00 44.57159 26.08364 324 ft 1 kts 348°
2026-05-05 17:00 44.57168 26.08363 324 ft 2 kts 353°
2026-05-05 17:00 44.57183 26.08363 324 ft 3 kts
2026-05-05 17:01 44.57204 26.08369 326 ft 2 kts 24°
2026-05-05 17:01 44.57209 26.08380 324 ft 1 kts 54°
2026-05-05 17:01 44.57213 26.08393 325 ft 2 kts 65°
2026-05-05 17:01 44.57220 26.08412 324 ft 3 kts 66°
2026-05-05 17:02 44.57226 26.08443 325 ft 4 kts 75°
2026-05-05 17:02 44.57240 26.08468 324 ft 4 kts 46°
2026-05-05 17:02 44.57277 26.08491 324 ft 7 kts 12°
2026-05-05 17:02 44.57341 26.08488 326 ft 11 kts 355°
2026-05-05 17:03 44.57420 26.08478 328 ft 12 kts 353°
2026-05-05 17:03 44.57487 26.08507 324 ft 9 kts 53°
2026-05-05 17:03 44.57499 26.08583 325 ft 8 kts 82°
2026-05-05 17:03 44.57507 26.08669 325 ft 9 kts 84°
2026-05-05 17:04 44.57513 26.08761 325 ft 10 kts 84°
2026-05-05 17:04 44.57520 26.08860 328 ft 11 kts 84°
2026-05-05 17:04 44.57528 26.08966 327 ft 11 kts 84°
2026-05-05 17:04 44.57537 26.09080 327 ft 12 kts 84°
2026-05-05 17:05 44.57547 26.09200 327 ft 13 kts 83°
2026-05-05 17:05 44.57557 26.09327 325 ft 13 kts 83°
2026-05-05 17:05 44.57567 26.09460 325 ft 14 kts 85°
2026-05-05 17:05 44.57575 26.09597 328 ft 14 kts 84°
2026-05-05 17:06 44.57585 26.09739 325 ft 15 kts 84°
2026-05-05 17:06 44.57597 26.09884 324 ft 15 kts 84°
2026-05-05 17:06 44.57609 26.10034 328 ft 16 kts 83°
2026-05-05 17:06 44.57621 26.10189 327 ft 16 kts 84°
2026-05-05 17:07 44.57633 26.10347 326 ft 16 kts 84°
2026-05-05 17:07 44.57645 26.10510 327 ft 17 kts 84°
2026-05-05 17:07 44.57657 26.10676 327 ft 17 kts 84°
2026-05-05 17:07 44.57670 26.10846 327 ft 18 kts 84°
2026-05-05 17:08 44.57683 26.11017 328 ft 18 kts 84°
2026-05-05 17:08 44.57696 26.11194 326 ft 18 kts 84°
2026-05-05 17:08 44.57710 26.11374 327 ft 19 kts 84°
2026-05-05 17:08 44.57723 26.11556 325 ft 19 kts 84°
2026-05-05 17:09 44.57737 26.11740 326 ft 19 kts 84°
2026-05-05 17:09 44.57751 26.11923 327 ft 19 kts 84°
2026-05-05 17:09 44.57765 26.12104 328 ft 19 kts 84°
2026-05-05 17:09 44.57779 26.12286 326 ft 19 kts 84°
2026-05-05 17:10 44.57792 26.12471 326 ft 19 kts 84°
2026-05-05 17:10 44.57807 26.12658 327 ft 19 kts 84°
2026-05-05 17:10 44.57836 26.12837 323 ft 16 kts 49°
2026-05-05 17:10 44.57850 26.12850 326 ft 1 kts 20°
2026-05-05 17:11 44.57855 26.12851 326 ft 1 kts 10°
2026-05-05 17:11 44.57859 26.12851 324 ft 0 kts
2026-05-05 17:12 44.57861 26.12851 325 ft 1 kts
2026-05-05 17:12 44.57868 26.12851 324 ft 1 kts 356°
2026-05-05 17:12 44.57884 26.12846 325 ft 4 kts 347°
2026-05-05 17:13 44.57917 26.12823 325 ft 7 kts 326°
2026-05-05 17:13 44.57962 26.12774 324 ft 9 kts 317°
2026-05-05 17:13 44.57975 26.12720 325 ft 7 kts 281°
2026-05-05 17:13 44.57960 26.12402 328 ft 64 kts 264°
2026-05-05 17:14 44.57892 26.11491 329 ft 121 kts 264°
2026-05-05 17:14 44.57781 26.10065 326 ft 171 kts 263°
2026-05-05 17:14 44.57648 26.08461 1080 ft 155 kts 263°
2026-05-05 17:14 44.57526 26.06899 1470 ft 166 kts 263°
2026-05-05 17:15 44.57403 26.05245 1845 ft 176 kts 264°
2026-05-05 17:15 44.57284 26.03455 2118 ft 193 kts 262°
2026-05-05 17:15 44.56683 26.01720 2381 ft 208 kts 227°
2026-05-05 17:15 44.55409 26.00728 2752 ft 218 kts 194°
2026-05-05 17:16 44.53873 26.00829 2882 ft 235 kts 161°
2026-05-05 17:16 44.52510 26.02130 3291 ft 244 kts 129°
2026-05-05 17:16 44.51775 26.04254 3828 ft 244 kts 98°
2026-05-05 17:16 44.51653 26.06615 4448 ft 243 kts 88°
2026-05-05 17:17 44.51677 26.08976 5069 ft 243 kts 86°
2026-05-05 17:17 44.51703 26.11342 5701 ft 243 kts 86°
2026-05-05 17:17 44.51710 26.13708 6344 ft 243 kts 86°
2026-05-05 17:17 44.51695 26.16082 6955 ft 244 kts 86°
2026-05-05 17:18 44.51668 26.18469 7559 ft 246 kts 86°
2026-05-05 17:18 44.51661 26.18992 7692 ft 246 kts 86°
2026-05-05 17:18 44.51602 26.20649 7999 ft 256 kts 91°
2026-05-05 17:18 44.51196 26.23182 8343 ft 275 kts 101°
2026-05-05 17:19 44.50576 26.25758 8910 ft 282 kts 105°
2026-05-05 17:19 44.49840 26.28344 9567 ft 287 kts 107°
2026-05-05 17:19 44.49058 26.30894 10193 ft 291 kts 108°
2026-05-05 17:19 44.48223 26.33565 10518 ft 307 kts 108°
2026-05-05 17:20 44.47348 26.36384 10809 ft 323 kts 108°
2026-05-05 17:20 44.46436 26.39348 11114 ft 339 kts 108°
2026-05-05 17:20 44.45490 26.42449 11391 ft 354 kts 108°
2026-05-05 17:20 44.44505 26.45689 11669 ft 369 kts 108°
2026-05-05 17:21 44.43486 26.49048 11982 ft 381 kts 109°
2026-05-05 17:21 44.42441 26.52483 12518 ft 386 kts 109°
2026-05-05 17:21 44.41385 26.55946 13137 ft 389 kts 109°
2026-05-05 17:22 44.39245 26.62955 14342 ft 395 kts 109°
2026-05-05 17:22 44.38164 26.66499 14869 ft 398 kts 109°
2026-05-05 17:22 44.37071 26.70078 15407 ft 402 kts 109°
2026-05-05 17:22 44.35969 26.73684 15936 ft 405 kts 109°
2026-05-05 17:23 44.34858 26.77315 16487 ft 408 kts 109°
2026-05-05 17:23 44.33733 26.80986 17015 ft 412 kts 109°
2026-05-05 17:23 44.32614 26.84625 17538 ft 415 kts 111°
2026-05-05 17:23 44.31433 26.88332 18043 ft 419 kts 112°
2026-05-05 17:24 44.30221 26.92053 18524 ft 423 kts 112°
2026-05-05 17:24 44.29001 26.95819 18966 ft 426 kts 112°
2026-05-05 17:24 44.27791 26.99611 19399 ft 430 kts 111°
2026-05-05 17:24 44.26989 27.02153 19685 ft 432 kts 111°
2026-05-05 17:25 44.26097 27.05006 20030 ft 435 kts 111°
2026-05-05 17:25 44.25293 27.07589 20346 ft 437 kts 111°
2026-05-05 17:25 44.23666 27.12830 20970 ft 442 kts 111°
2026-05-05 17:25 44.22442 27.16774 21452 ft 446 kts 111°
2026-05-05 17:26 44.21202 27.20760 21928 ft 449 kts 111°
2026-05-05 17:26 44.19953 27.24771 22403 ft 453 kts 111°
2026-05-05 17:26 44.18692 27.28807 22880 ft 457 kts 111°
2026-05-05 17:26 44.17416 27.32884 23352 ft 460 kts 112°
2026-05-05 17:27 44.16308 27.36416 23723 ft 463 kts 112°
2026-05-05 17:27 44.15012 27.40543 24135 ft 466 kts 112°
2026-05-05 17:27 44.13724 27.44641 24555 ft 469 kts 112°
2026-05-05 17:27 44.12410 27.48811 24972 ft 471 kts 112°
2026-05-05 17:28 44.11090 27.52998 25387 ft 474 kts 112°
2026-05-05 17:28 44.09760 27.57205 25807 ft 476 kts 112°
2026-05-05 17:28 44.08422 27.61432 26223 ft 479 kts 112°
2026-05-05 17:28 44.07076 27.65679 26642 ft 481 kts 113°
2026-05-05 17:29 44.05724 27.69935 27050 ft 483 kts 113°
2026-05-05 17:29 44.04363 27.74210 27440 ft 485 kts 113°
2026-05-05 17:29 44.02991 27.78512 27842 ft 487 kts 113°
2026-05-05 17:29 44.01617 27.82818 28216 ft 490 kts 114°
2026-05-05 17:30 44.00230 27.87156 28589 ft 492 kts 114°
2026-05-05 17:30 43.98837 27.91505 28958 ft 494 kts 114°
2026-05-05 17:30 43.97440 27.95863 29456 ft 492 kts 114°
2026-05-05 17:30 43.96045 28.00200 29980 ft 491 kts 114°
2026-05-05 17:31 43.94655 28.04507 30423 ft 489 kts 114°
2026-05-05 17:31 43.93262 28.08818 30805 ft 489 kts 114°
2026-05-05 17:31 43.91870 28.13116 31174 ft 488 kts 114°
2026-05-05 17:31 43.90480 28.17403 31528 ft 487 kts 114°
2026-05-05 17:32 43.89091 28.21686 31893 ft 486 kts 114°
2026-05-05 17:32 43.87706 28.25946 32253 ft 485 kts 114°
2026-05-05 17:32 43.86319 28.30211 32610 ft 483 kts 114°
2026-05-05 17:32 43.84940 28.34449 32937 ft 483 kts 114°
2026-05-05 17:33 43.83558 28.38690 33050 ft 482 kts 114°
2026-05-05 17:33 43.80800 28.47137 33072 ft 481 kts 114°
2026-05-05 17:34 43.78404 28.54457 33062 ft 479 kts 114°
2026-05-05 17:34 43.75641 28.62874 33063 ft 481 kts 114°
2026-05-05 17:35 43.72867 28.71295 33070 ft 481 kts 114°
2026-05-05 17:35 43.70032 28.79593 33075 ft 481 kts 118°
2026-05-05 17:36 43.66339 28.87330 33073 ft 485 kts 124°
2026-05-05 17:36 43.62361 28.94945 33074 ft 490 kts 125°
2026-05-05 17:37 43.58335 29.02543 33074 ft 491 kts 125°
2026-05-05 17:37 43.54313 29.10150 33068 ft 491 kts 125°
2026-05-05 17:38 43.50294 29.17763 33069 ft 491 kts 125°
2026-05-05 17:38 43.46269 29.25378 33074 ft 492 kts 125°
2026-05-05 17:39 43.42268 29.32929 33077 ft 492 kts 125°
2026-05-05 17:39 43.38224 29.40539 33074 ft 492 kts 124°
2026-05-05 17:40 43.34178 29.48132 33073 ft 492 kts 124°
2026-05-05 17:40 43.30125 29.55717 33072 ft 493 kts 124°
2026-05-05 17:41 43.26066 29.63296 33069 ft 493 kts 124°
2026-05-05 17:41 43.22001 29.70865 33073 ft 493 kts 124°
2026-05-05 17:42 43.17925 29.78437 33064 ft 493 kts 124°
2026-05-05 17:42 43.13843 29.85999 33072 ft 494 kts 124°
2026-05-05 17:43 43.09757 29.93549 33066 ft 494 kts 124°
2026-05-05 17:43 43.05646 30.01132 33067 ft 498 kts 125°
2026-05-05 17:44 43.01510 30.08732 33069 ft 499 kts 125°
2026-05-05 17:44 42.97357 30.16346 33065 ft 500 kts 125°
2026-05-05 17:45 42.93199 30.23951 33065 ft 500 kts 125°
2026-05-05 17:45 42.89736 30.30272 33057 ft 501 kts 125°
2026-05-05 17:46 42.85562 30.37870 33057 ft 501 kts 125°
2026-05-05 17:46 42.84152 30.40433 33059 ft 501 kts 125°
2026-05-05 17:47 42.81784 30.44732 33062 ft 501 kts 125°
2026-05-05 17:48 42.77590 30.52329 33061 ft 502 kts 125°
2026-05-05 17:48 42.73882 30.60294 33061 ft 497 kts 112°
2026-05-05 17:49 42.71728 30.69163 33058 ft 492 kts 103°
2026-05-05 17:49 42.69956 30.78144 33057 ft 491 kts 103°
2026-05-05 17:50 42.68235 30.87068 33058 ft 491 kts 103°
2026-05-05 17:50 42.66480 30.96045 33053 ft 492 kts 103°
2026-05-05 17:51 42.64705 31.05022 33057 ft 492 kts 103°
2026-05-05 17:51 42.62919 31.13992 33051 ft 493 kts 103°
2026-05-05 17:52 42.61123 31.22971 33056 ft 493 kts 103°
2026-05-05 17:52 42.59321 31.31949 33054 ft 493 kts 103°
2026-05-05 17:53 42.57511 31.40926 33053 ft 493 kts 103°
2026-05-05 17:53 42.55694 31.49900 33050 ft 493 kts 104°
2026-05-05 17:54 42.53869 31.58869 33051 ft 493 kts 104°
2026-05-05 17:54 42.52033 31.67852 33048 ft 493 kts 104°
2026-05-05 17:55 42.50193 31.76815 33046 ft 494 kts 104°
2026-05-05 17:55 42.48354 31.85735 33046 ft 494 kts 104°
2026-05-05 17:56 42.46500 31.94692 33049 ft 494 kts 104°
2026-05-05 17:56 42.44634 32.03664 33049 ft 494 kts 104°
2026-05-05 17:57 42.42765 32.12616 33051 ft 494 kts 104°
2026-05-05 17:57 42.40900 32.21508 33050 ft 495 kts 104°
2026-05-05 17:58 42.39010 32.30479 33052 ft 495 kts 104°
2026-05-05 17:58 42.37116 32.39432 33043 ft 495 kts 104°
2026-05-05 17:59 42.35210 32.48404 33046 ft 495 kts 104°
2026-05-05 17:59 42.33338 32.57364 33043 ft 494 kts 101°
2026-05-05 18:00 42.32155 32.66503 33053 ft 492 kts 96°
2026-05-05 18:00 42.31132 32.75576 33048 ft 491 kts 96°
2026-05-05 18:01 42.30110 32.84707 33053 ft 492 kts 96°
2026-05-05 18:01 42.29069 32.93860 33056 ft 492 kts 96°
2026-05-05 18:02 42.28012 33.03015 33052 ft 492 kts 96°
2026-05-05 18:02 42.26949 33.12153 33055 ft 493 kts 96°
2026-05-05 18:03 42.25884 33.21249 33055 ft 493 kts 96°
2026-05-05 18:03 42.24806 33.30380 33056 ft 492 kts 97°
2026-05-05 18:04 42.23722 33.39505 33056 ft 492 kts 97°
2026-05-05 18:04 42.22629 33.48643 33059 ft 492 kts 97°
2026-05-05 18:05 42.21532 33.57755 33059 ft 492 kts 97°
2026-05-05 18:05 42.20427 33.66865 33058 ft 492 kts 97°
2026-05-05 18:06 42.19322 33.75912 33062 ft 492 kts 97°
2026-05-05 18:06 42.18204 33.85018 33058 ft 492 kts 97°
2026-05-05 18:07 42.17052 33.94138 33059 ft 492 kts 97°
2026-05-05 18:07 42.15887 34.03203 33059 ft 493 kts 97°
2026-05-05 18:08 42.14714 34.12309 33065 ft 493 kts 97°
2026-05-05 18:08 42.13537 34.21417 33067 ft 493 kts 98°
2026-05-05 18:09 42.12354 34.30525 33059 ft 494 kts 98°
2026-05-05 18:09 42.11169 34.39589 33049 ft 494 kts 98°
2026-05-05 18:10 42.09974 34.48670 33069 ft 494 kts 98°
2026-05-05 18:10 42.08767 34.57780 33061 ft 493 kts 98°
2026-05-05 18:11 42.07552 34.66892 33064 ft 493 kts 98°
2026-05-05 18:11 42.06334 34.75977 33070 ft 493 kts 99°
2026-05-05 18:12 42.05116 34.85001 33070 ft 493 kts 99°
2026-05-05 18:12 42.03880 34.94105 33077 ft 494 kts 99°
2026-05-05 18:13 42.02638 35.03185 33076 ft 494 kts 99°
2026-05-05 18:13 42.01798 35.12328 33076 ft 493 kts 94°
2026-05-05 18:14 42.01291 35.21462 33077 ft 491 kts 94°
2026-05-05 18:14 42.00811 35.30629 33071 ft 491 kts 94°
2026-05-05 18:15 42.00322 35.39793 33065 ft 491 kts 94°
2026-05-05 18:15 41.99818 35.48975 33058 ft 491 kts 94°
2026-05-05 18:16 41.99306 35.58131 33055 ft 491 kts 94°
2026-05-05 18:16 41.98787 35.67285 33056 ft 491 kts 95°
2026-05-05 18:17 41.98264 35.76378 33050 ft 491 kts 95°
2026-05-05 18:17 41.97729 35.85553 33050 ft 491 kts 95°
2026-05-05 18:18 41.97188 35.94705 33049 ft 491 kts 95°
2026-05-05 18:18 41.96640 36.03854 33052 ft 491 kts 95°
2026-05-05 18:19 41.96085 36.13002 33052 ft 491 kts 96°
2026-05-05 18:19 41.95522 36.22147 33051 ft 491 kts 96°
2026-05-05 18:20 41.94952 36.31302 33051 ft 490 kts 96°
2026-05-05 18:20 41.94376 36.40426 33050 ft 490 kts 96°
2026-05-05 18:21 41.93795 36.49508 33048 ft 490 kts 96°
2026-05-05 18:21 41.93204 36.58634 33049 ft 491 kts 96°
2026-05-05 18:22 41.92606 36.67762 33053 ft 491 kts 97°
2026-05-05 18:22 41.92000 36.76908 33050 ft 490 kts 97°
2026-05-05 18:23 41.91388 36.86025 33047 ft 490 kts 97°
2026-05-05 18:23 41.90769 36.95136 33045 ft 490 kts 97°
2026-05-05 18:24 41.90146 37.04199 33051 ft 490 kts 97°
2026-05-05 18:24 41.89786 37.13327 33051 ft 490 kts 93°
2026-05-05 18:25 41.89773 37.22435 33510 ft 485 kts 92°
2026-05-05 18:25 41.89771 37.23980 33659 ft 484 kts 92°
2026-05-05 18:25 41.89721 37.31459 34168 ft 483 kts 93°
2026-05-05 18:25 41.89663 37.35976 34373 ft 483 kts 94°
2026-05-05 18:26 41.89593 37.40475 34569 ft 483 kts 94°
2026-05-05 18:26 41.89515 37.44997 34768 ft 484 kts 94°
2026-05-05 18:26 41.89434 37.49516 34950 ft 484 kts 94°
2026-05-05 18:27 41.89265 37.58609 35052 ft 491 kts 94°
2026-05-05 18:27 41.89095 37.67766 35049 ft 490 kts 94°
2026-05-05 18:28 41.88833 37.81439 35046 ft 490 kts 94°
2026-05-05 18:28 41.88278 38.07502 35046 ft 490 kts 95°
2026-05-05 18:29 41.87406 38.44063 35040 ft 489 kts 95°
2026-05-05 18:29 41.86428 38.80257 35047 ft 488 kts 96°
2026-05-05 18:30 41.85331 39.16626 35043 ft 487 kts 96°
2026-05-05 18:30 41.84119 39.53016 35037 ft 488 kts 96°
2026-05-05 18:31 41.83023 39.83299 35038 ft 487 kts 97°
2026-05-05 18:31 41.81368 40.25551 35037 ft 487 kts 97°
2026-05-05 18:32 41.80074 40.55765 35039 ft 488 kts 97°
2026-05-05 18:32 41.78339 40.92181 35040 ft 489 kts 98°
2026-05-05 18:33 41.76452 41.28630 35042 ft 490 kts 98°
2026-05-05 18:33 41.74447 41.65145 35044 ft 491 kts 98°
2026-05-05 18:34 41.72324 42.01666 35029 ft 492 kts 99°
2026-05-05 18:34 41.70071 42.38323 35011 ft 494 kts 99°
2026-05-05 18:35 41.67696 42.75055 34994 ft 496 kts 99°
2026-05-05 18:35 41.65205 43.11681 34983 ft 498 kts 100°
2026-05-05 18:36 41.62565 43.48646 34979 ft 499 kts 100°
2026-05-05 18:36 41.59812 43.85716 34977 ft 502 kts 100°
2026-05-05 18:37 41.56764 44.22863 34989 ft 500 kts 108°
2026-05-05 18:37 41.48213 44.58177 34975 ft 500 kts 114°
2026-05-05 18:38 41.39385 44.93285 34950 ft 502 kts 114°
2026-05-05 18:38 41.30369 45.28613 34929 ft 503 kts 115°
2026-05-05 18:39 41.21278 45.63717 34923 ft 505 kts 115°
2026-05-05 18:39 41.11996 45.99041 34921 ft 507 kts 116°
2026-05-05 18:40 41.02585 46.34345 34928 ft 508 kts 117°
2026-05-05 18:40 40.93050 46.69609 34940 ft 509 kts 118°
2026-05-05 18:41 40.90869 46.88410 34934 ft 537 kts 86°
2026-05-05 18:41 40.94232 47.07537 34941 ft 542 kts 82°
2026-05-05 18:41 41.01413 47.46279 34976 ft 542 kts 83°
2026-05-05 18:42 41.08366 47.85160 34968 ft 542 kts 83°
2026-05-05 18:42 41.13054 48.04263 34965 ft 551 kts 69°
2026-05-05 18:42 41.20115 48.22342 34972 ft 550 kts 67°
2026-05-05 18:43 41.34183 48.58457 35012 ft 548 kts 68°
2026-05-05 18:43 41.48027 48.94540 35009 ft 551 kts 68°
2026-05-05 18:44 41.61900 49.31150 35003 ft 552 kts 68°
2026-05-05 18:44 41.75666 49.67945 34997 ft 552 kts 69°
2026-05-05 18:45 41.89295 50.04840 34990 ft 552 kts 69°
2026-05-05 18:45 42.02809 50.41909 34988 ft 552 kts 69°
2026-05-05 18:46 42.16214 50.79162 34977 ft 553 kts 70°
2026-05-05 18:46 42.29536 51.16682 34971 ft 554 kts 70°
2026-05-05 18:47 42.42694 51.54239 34966 ft 555 kts 70°
2026-05-05 18:47 42.55813 51.92201 34963 ft 557 kts 71°
2026-05-05 18:48 42.68901 52.30600 34957 ft 559 kts 71°
2026-05-05 18:48 42.81870 52.69193 34951 ft 561 kts 71°
2026-05-05 18:49 42.94757 53.08091 34950 ft 563 kts 71°
2026-05-05 18:49 43.07558 53.47295 34944 ft 566 kts 72°
2026-05-05 18:50 43.20212 53.86625 34941 ft 569 kts 72°
2026-05-05 18:50 43.32868 54.26549 34922 ft 570 kts 72°
2026-05-05 18:51 43.45417 54.66749 34920 ft 572 kts 72°
2026-05-05 18:51 43.57889 55.07322 34902 ft 575 kts 72°
2026-05-05 18:52 43.70191 55.47978 34899 ft 576 kts 72°
2026-05-05 18:52 43.82443 55.89119 34886 ft 577 kts 72°
2026-05-05 18:53 43.86793 56.10201 34877 ft 567 kts 87°
2026-05-05 18:53 43.88990 56.31850 34871 ft 567 kts 88°
2026-05-05 18:53 43.93327 56.75368 34865 ft 569 kts 88°
2026-05-05 18:54 43.97515 57.18845 34861 ft 566 kts 88°
2026-05-05 18:54 44.01516 57.62173 34858 ft 564 kts 88°
2026-05-05 18:55 44.05320 58.05174 34866 ft 561 kts 87°
2026-05-05 18:55 44.08965 58.48254 34867 ft 557 kts 87°
2026-05-05 18:56 44.12418 58.90995 34875 ft 553 kts 87°
2026-05-05 18:56 44.15676 59.33335 34887 ft 552 kts 87°
2026-05-05 18:57 44.18789 59.75871 34900 ft 549 kts 87°
2026-05-05 18:57 44.21733 60.18290 34907 ft 548 kts 87°
2026-05-05 18:58 44.24496 60.60377 34916 ft 547 kts 87°
2026-05-05 18:58 44.27115 61.02664 34923 ft 546 kts 88°
2026-05-05 18:59 44.29578 61.45013 34929 ft 544 kts 88°
2026-05-05 18:59 44.31861 61.86926 34939 ft 543 kts 88°
2026-05-05 19:00 44.33994 62.28959 34945 ft 542 kts 88°
2026-05-05 19:00 44.35972 62.71019 34956 ft 540 kts 88°
2026-05-05 19:01 44.37788 63.12894 34965 ft 538 kts 88°
2026-05-05 19:01 44.39440 63.54508 34964 ft 537 kts 88°
2026-05-05 19:02 44.40943 63.96179 34972 ft 535 kts 88°
2026-05-05 19:02 44.42289 64.37766 34981 ft 534 kts 88°
2026-05-05 19:03 44.43288 64.79359 34988 ft 534 kts 89°
2026-05-05 19:03 44.44009 65.20672 34997 ft 533 kts 89°
2026-05-05 19:04 44.44592 65.62204 34996 ft 531 kts 89°
2026-05-05 19:04 44.45024 66.03626 35005 ft 529 kts 89°
2026-05-05 19:05 44.45267 66.37875 35007 ft 527 kts 89°
2026-05-05 19:05 44.45434 66.85436 35015 ft 524 kts 90°
2026-05-05 19:06 44.45433 67.19452 35019 ft 523 kts 90°
2026-05-05 19:06 44.45298 67.60181 35029 ft 522 kts 90°
2026-05-05 19:07 44.45020 68.00845 35018 ft 521 kts 90°
2026-05-05 19:07 44.46668 68.41250 35013 ft 517 kts 82°
2026-05-05 19:08 44.50286 68.81122 35014 ft 515 kts 83°
2026-05-05 19:08 44.53712 69.20795 35015 ft 513 kts 83°
2026-05-05 19:09 44.56998 69.60476 35015 ft 511 kts 84°
2026-05-05 19:09 44.60139 70.00109 35016 ft 510 kts 85°
2026-05-05 19:10 44.63138 70.39714 35019 ft 510 kts 85°
2026-05-05 19:10 44.65998 70.79344 35027 ft 509 kts 86°
2026-05-05 19:11 44.68701 71.18706 35027 ft 508 kts 86°
2026-05-05 19:11 44.71281 71.58316 35032 ft 507 kts 87°
2026-05-05 19:12 44.73712 71.97733 35034 ft 504 kts 87°
2026-05-05 19:12 44.75983 72.36760 35038 ft 501 kts 87°
2026-05-05 19:13 44.78137 72.76110 35046 ft 501 kts 87°
2026-05-05 19:13 44.80135 73.15089 35052 ft 500 kts 88°
2026-05-05 19:14 44.82008 73.54273 35065 ft 499 kts 88°
2026-05-05 19:14 44.83732 73.93136 35065 ft 499 kts 88°
2026-05-05 19:15 44.85335 74.32266 35069 ft 498 kts 88°
2026-05-05 19:15 44.86799 74.71279 35070 ft 497 kts 88°
2026-05-05 19:16 44.88127 75.10219 35077 ft 496 kts 89°
2026-05-05 19:16 44.89322 75.49135 35078 ft 495 kts 89°
2026-05-05 19:17 44.90375 75.87715 35077 ft 495 kts 89°
2026-05-05 19:17 44.91303 76.26519 35077 ft 494 kts 90°
2026-05-05 19:18 44.92098 76.65282 35072 ft 494 kts 90°
2026-05-05 19:18 44.92762 77.04044 35078 ft 493 kts 90°
2026-05-05 19:19 44.93296 77.42856 35087 ft 493 kts 90°
2026-05-05 19:19 44.93695 77.81361 35101 ft 493 kts 90°
2026-05-05 19:20 44.93966 78.20109 35111 ft 492 kts 91°
2026-05-05 19:20 44.94107 78.58797 35128 ft 492 kts 91°
2026-05-05 19:21 44.94115 78.97504 35153 ft 492 kts 91°
2026-05-05 19:21 44.93993 79.36190 35183 ft 491 kts 91°
2026-05-05 19:22 44.93745 79.74542 35213 ft 490 kts 91°
2026-05-05 19:22 44.93364 80.13245 35231 ft 490 kts 91°
2026-05-05 19:23 44.92858 80.51440 35229 ft 490 kts 91°
2026-05-05 19:23 44.92218 80.89954 35207 ft 490 kts 91°
2026-05-05 19:24 44.91452 81.28436 35167 ft 490 kts 92°
2026-05-05 19:24 44.90557 81.66848 35148 ft 489 kts 92°
2026-05-05 19:25 44.89533 82.05290 35125 ft 489 kts 92°
2026-05-05 19:25 44.88388 82.43459 35099 ft 490 kts 92°
2026-05-05 19:26 44.87102 82.81947 35089 ft 489 kts 92°
2026-05-05 19:26 44.85693 83.20300 35088 ft 489 kts 92°
2026-05-05 19:27 44.84160 83.58536 35089 ft 489 kts 92°
2026-05-05 19:27 44.82509 83.96529 35088 ft 487 kts 92°
2026-05-05 19:28 44.80724 84.34661 35089 ft 485 kts 92°
2026-05-05 19:28 44.78821 84.72607 35087 ft 483 kts 92°
2026-05-05 19:29 44.76816 85.10105 35092 ft 481 kts 92°
2026-05-05 19:29 44.74691 85.47532 35101 ft 479 kts 93°
2026-05-05 19:30 44.72443 85.84948 35103 ft 479 kts 93°
2026-05-05 19:30 44.70079 86.22223 35106 ft 477 kts 93°
2026-05-05 19:31 44.67613 86.59210 35106 ft 476 kts 93°
2026-05-05 19:31 44.65016 86.96342 35128 ft 485 kts 93°
2026-05-05 19:32 44.63632 87.15455 35269 ft 496 kts 94°
2026-05-05 19:32 44.62199 87.34724 35436 ft 499 kts 94°
2026-05-05 19:32 44.60716 87.54248 35592 ft 501 kts 94°
2026-05-05 19:32 44.59202 87.73721 35739 ft 502 kts 94°
2026-05-05 19:33 44.57653 87.93229 35865 ft 504 kts 95°
2026-05-05 19:33 44.55897 88.12801 36004 ft 506 kts 96°
2026-05-05 19:33 44.51927 88.51971 36181 ft 508 kts 97°
2026-05-05 19:34 44.47859 88.91302 36360 ft 511 kts 97°
2026-05-05 19:34 44.45828 89.10572 37794 ft 497 kts 98°
2026-05-05 19:35 44.41686 89.48869 39074 ft 503 kts 99°
2026-05-05 19:35 44.37311 89.87844 39122 ft 508 kts 100°
2026-05-05 19:36 44.32793 90.26872 39124 ft 508 kts 101°
2026-05-05 19:36 44.28745 90.60846 39120 ft 510 kts 101°
2026-05-05 19:37 44.23951 90.99973 39133 ft 513 kts 101°
2026-05-05 19:37 44.18994 91.39272 39145 ft 515 kts 102°
2026-05-05 19:38 44.13892 91.78581 39158 ft 517 kts 102°
2026-05-05 19:38 44.08622 92.18066 39162 ft 519 kts 102°
2026-05-05 19:39 44.03200 92.57599 39145 ft 522 kts 103°
2026-05-05 19:39 43.97602 92.97330 39141 ft 525 kts 103°
2026-05-05 19:40 43.91840 93.37174 39141 ft 527 kts 103°
2026-05-05 19:40 43.85931 93.76993 39153 ft 528 kts 103°
2026-05-05 19:41 43.79888 94.16717 39115 ft 528 kts 104°
2026-05-05 19:41 43.73689 94.56474 39085 ft 529 kts 105°
2026-05-05 19:42 43.67377 94.95998 39076 ft 530 kts 105°
2026-05-05 19:42 43.60874 95.35767 39079 ft 531 kts 106°
2026-05-05 19:43 43.54218 95.75542 39076 ft 533 kts 106°
2026-05-05 19:43 43.48508 96.08957 39082 ft 535 kts 106°
2026-05-05 19:44 43.41596 96.48588 39097 ft 536 kts 107°
2026-05-05 19:44 43.34496 96.88412 39106 ft 536 kts 107°
2026-05-05 19:45 43.27256 97.28151 39099 ft 536 kts 108°
2026-05-05 19:45 43.19874 97.67829 39095 ft 537 kts 109°
2026-05-05 19:46 43.12302 98.07683 39092 ft 541 kts 110°
2026-05-05 19:46 43.04564 98.47580 39090 ft 544 kts 111°
2026-05-05 19:47 42.96656 98.87540 39078 ft 546 kts 112°
2026-05-05 19:47 42.88616 99.27350 39063 ft 548 kts 113°
2026-05-05 19:48 42.80336 99.67566 39053 ft 550 kts 113°
2026-05-05 19:48 42.71890 100.07771 39040 ft 552 kts 114°
2026-05-05 19:49 42.63291 100.47936 39036 ft 556 kts 114°
2026-05-05 19:49 42.54491 100.88269 39024 ft 558 kts 114°
2026-05-05 19:50 42.45536 101.28551 39025 ft 559 kts 115°
2026-05-05 19:50 42.36454 101.68653 39034 ft 560 kts 115°
2026-05-05 19:51 42.27154 102.08973 39036 ft 561 kts 115°
2026-05-05 19:51 42.17759 102.48990 39037 ft 562 kts 115°
2026-05-05 19:52 42.08163 102.89141 39040 ft 561 kts 115°
2026-05-05 19:52 41.98464 103.29023 39039 ft 560 kts 116°
2026-05-05 19:53 41.88710 103.68447 39034 ft 560 kts 116°
2026-05-05 19:53 41.78707 104.08203 39028 ft 563 kts 117°
2026-05-05 19:54 41.76990 104.14962 39022 ft 563 kts 117°
2026-05-05 19:54 41.74714 104.23889 39023 ft 564 kts 117°
2026-05-05 19:55 41.64535 104.63418 39008 ft 565 kts 117°
2026-05-05 19:55 41.54112 105.03235 39008 ft 567 kts 117°
2026-05-05 19:56 41.43523 105.43029 38994 ft 569 kts 118°
2026-05-05 19:56 41.35243 105.83836 38977 ft 581 kts 107°
2026-05-05 19:57 41.30773 106.14505 38966 ft 583 kts 107°
2026-05-05 19:57 41.24366 106.56994 38964 ft 585 kts 107°
2026-05-05 19:58 41.17847 106.99148 38949 ft 586 kts 107°
2026-05-05 19:58 41.11125 107.41492 38929 ft 587 kts 107°
2026-05-05 19:59 41.04241 107.83813 38912 ft 586 kts 107°
2026-05-05 19:59 40.97216 108.25970 38900 ft 586 kts 107°
2026-05-05 20:00 40.90087 108.67746 38879 ft 586 kts 107°
2026-05-05 20:00 40.82746 109.09780 38862 ft 586 kts 107°
2026-05-05 20:01 40.75265 109.51647 38846 ft 584 kts 107°
2026-05-05 20:01 40.67662 109.93266 38828 ft 584 kts 107°
2026-05-05 20:02 40.60718 110.30502 38813 ft 585 kts 107°
2026-05-05 20:02 40.52866 110.71769 38790 ft 584 kts 107°
2026-05-05 20:03 40.44842 111.13065 38773 ft 582 kts 107°
2026-05-05 20:03 40.36709 111.54076 38771 ft 579 kts 107°
2026-05-05 20:04 40.28448 111.94899 38772 ft 577 kts 108°
2026-05-05 20:04 40.20145 112.35145 38772 ft 576 kts 108°
2026-05-05 20:05 40.11648 112.75557 38772 ft 575 kts 108°
2026-05-05 20:05 40.03053 113.15658 38752 ft 571 kts 108°
2026-05-05 20:06 39.94389 113.55355 38728 ft 569 kts 108°
2026-05-05 20:06 39.85633 113.94756 38749 ft 569 kts 108°
2026-05-05 20:07 39.76677 114.34346 38732 ft 569 kts 108°
2026-05-05 20:07 39.67618 114.73720 38729 ft 568 kts 108°
2026-05-05 20:08 39.58411 115.13014 38707 ft 568 kts 108°
2026-05-05 20:08 39.49139 115.51949 38682 ft 568 kts 108°
2026-05-05 20:09 39.39694 115.90954 38670 ft 567 kts 108°
2026-05-05 20:09 39.30127 116.29821 38687 ft 566 kts 108°
2026-05-05 20:10 39.20522 116.68221 38702 ft 564 kts 108°
2026-05-05 20:10 39.10783 117.06715 38711 ft 562 kts 107°
2026-05-05 20:11 39.01404 117.45038 38717 ft 561 kts 107°
2026-05-05 20:11 38.91864 117.83190 38721 ft 561 kts 107°
2026-05-05 20:12 38.82234 118.21116 38730 ft 562 kts 107°
2026-05-05 20:12 38.72416 118.59195 38743 ft 562 kts 107°
2026-05-05 20:13 38.62477 118.97160 38761 ft 561 kts 107°
2026-05-05 20:13 38.52493 119.34725 38783 ft 560 kts 107°
2026-05-05 20:14 38.42346 119.72349 38809 ft 560 kts 106°
2026-05-05 20:14 38.32095 120.09811 38822 ft 559 kts 106°
2026-05-05 20:15 38.21760 120.47037 38828 ft 557 kts 106°
2026-05-05 20:15 38.11365 120.83960 38847 ft 556 kts 106°
2026-05-05 20:16 38.00848 121.20796 38862 ft 555 kts 106°
2026-05-05 20:16 37.90228 121.57489 38878 ft 552 kts 106°
2026-05-05 20:17 37.79613 121.93675 38890 ft 549 kts 106°
2026-05-05 20:17 37.68856 122.29862 38912 ft 548 kts 106°
2026-05-05 20:18 37.58097 122.65587 38922 ft 547 kts 107°
2026-05-05 20:18 37.47188 123.01346 38943 ft 545 kts 107°
2026-05-05 20:19 37.36221 123.36845 38957 ft 541 kts 108°
2026-05-05 20:19 37.25244 123.71935 38973 ft 538 kts 109°
2026-05-05 20:20 37.16175 124.07032 38992 ft 524 kts 90°
2026-05-05 20:20 37.15238 124.43413 38989 ft 522 kts 90°
2026-05-05 20:21 37.14145 124.79622 39015 ft 522 kts 91°
2026-05-05 20:21 37.13024 125.13566 39023 ft 521 kts 91°
2026-05-05 20:22 37.11716 125.49941 39038 ft 520 kts 92°
2026-05-05 20:22 37.10311 125.85920 39056 ft 520 kts 93°
2026-05-05 20:23 37.08788 126.22135 39061 ft 520 kts 94°
2026-05-05 20:23 37.07148 126.58440 39061 ft 521 kts 94°
2026-05-05 20:24 37.05410 126.94511 39092 ft 523 kts 95°
2026-05-05 20:24 37.03543 127.30911 39086 ft 524 kts 95°
2026-05-05 20:25 37.01558 127.67430 39091 ft 526 kts 96°
2026-05-05 20:25 36.99455 128.04028 39102 ft 528 kts 96°
2026-05-05 20:26 36.97407 128.37909 39105 ft 529 kts 97°
2026-05-05 20:26 36.95081 128.74565 39106 ft 529 kts 97°
2026-05-05 20:27 36.92640 129.11263 39074 ft 530 kts 98°
2026-05-05 20:27 36.90075 129.48041 39037 ft 530 kts 98°
2026-05-05 20:28 36.87418 129.84545 39038 ft 531 kts 99°
2026-05-05 20:28 36.84619 130.21414 39046 ft 533 kts 99°
2026-05-05 20:29 36.81701 130.58311 39050 ft 534 kts 99°
2026-05-05 20:29 36.78665 130.95239 39062 ft 536 kts 100°
2026-05-05 20:30 36.75519 131.32086 39077 ft 538 kts 101°
2026-05-05 20:30 36.72215 131.69397 39076 ft 541 kts 101°
2026-05-05 20:31 36.68799 132.06623 39092 ft 544 kts 102°
2026-05-05 20:31 36.65239 132.44105 39101 ft 546 kts 102°
2026-05-05 20:32 36.61541 132.81771 39116 ft 548 kts 103°
2026-05-05 20:32 36.57707 133.19563 39127 ft 551 kts 103°
2026-05-05 20:33 36.53753 133.57328 39132 ft 554 kts 103°
2026-05-05 20:33 36.49647 133.95349 39142 ft 556 kts 104°
2026-05-05 20:34 36.45404 134.33482 39156 ft 557 kts 104°
2026-05-05 20:34 36.41027 134.71680 39152 ft 560 kts 105°
2026-05-05 20:35 36.36507 135.10010 39158 ft 563 kts 105°
2026-05-05 20:35 36.31859 135.48345 39166 ft 565 kts 106°
2026-05-05 20:36 36.27052 135.86933 39171 ft 567 kts 106°
2026-05-05 20:36 36.22094 136.25680 39164 ft 570 kts 107°
2026-05-05 20:37 36.17024 136.64296 39190 ft 572 kts 107°
2026-05-05 20:37 36.13687 136.89156 39224 ft 575 kts 107°
2026-05-05 20:37 36.13028 136.94037 39076 ft 575 kts 107°
2026-05-05 20:38 36.12367 136.98922 38841 ft 576 kts 108°
2026-05-05 20:38 36.12098 137.00903 38732 ft 577 kts 108°
2026-05-05 20:38 36.10404 137.13263 37836 ft 574 kts 108°
2026-05-05 20:38 36.07715 137.32685 35297 ft 573 kts 109°
2026-05-05 20:39 36.04933 137.52327 32134 ft 583 kts 108°
2026-05-05 20:39 36.04188 137.57590 31273 ft 585 kts 107°
2026-05-05 20:39 36.03495 137.62541 30573 ft 583 kts 107°
2026-05-05 20:39 36.02818 137.67401 29817 ft 579 kts 106°
2026-05-05 20:40 36.02138 137.72289 29051 ft 574 kts 106°
2026-05-05 20:40 36.01535 137.76614 28439 ft 569 kts 105°
2026-05-05 20:40 36.01088 137.79792 28017 ft 565 kts 105°
2026-05-05 20:40 36.00418 137.84534 27443 ft 558 kts 105°
2026-05-05 20:41 35.99750 137.89243 26851 ft 551 kts 105°
2026-05-05 20:41 35.99090 137.93862 26289 ft 544 kts 105°
2026-05-05 20:41 35.98432 137.98452 25755 ft 536 kts 105°
2026-05-05 20:41 35.97591 138.04295 24697 ft 509 kts 105°
2026-05-05 20:42 35.97178 138.07150 24270 ft 492 kts 105°
2026-05-05 20:42 35.96585 138.11215 23700 ft 473 kts 106°
2026-05-05 20:42 35.96001 138.15147 23129 ft 467 kts 106°
2026-05-05 20:42 35.95412 138.19070 22597 ft 461 kts 106°
2026-05-05 20:43 35.94830 138.22943 22072 ft 455 kts 105°
2026-05-05 20:43 35.94257 138.26765 21552 ft 449 kts 105°
2026-05-05 20:43 35.93696 138.30537 21033 ft 445 kts 105°
2026-05-05 20:43 35.93135 138.34306 20511 ft 445 kts 104°
2026-05-05 20:44 35.92589 138.38010 19989 ft 440 kts 104°
2026-05-05 20:44 35.92046 138.41700 19459 ft 436 kts 104°
2026-05-05 20:44 35.91507 138.45360 18936 ft 431 kts 104°
2026-05-05 20:44 35.90969 138.48992 18361 ft 426 kts 103°
2026-05-05 20:45 35.89924 138.56084 17357 ft 413 kts 103°
2026-05-05 20:45 35.89672 138.59599 17088 ft 417 kts 93°
2026-05-05 20:45 35.89838 138.63158 16716 ft 412 kts 88°
2026-05-05 20:46 35.90166 138.66646 16229 ft 406 kts 85°
2026-05-05 20:46 35.90574 138.70068 15721 ft 402 kts 84°
2026-05-05 20:46 35.91013 138.73422 15202 ft 397 kts 84°
2026-05-05 20:46 35.91460 138.76758 14694 ft 393 kts 84°
2026-05-05 20:47 35.91899 138.80080 14170 ft 389 kts 84°
2026-05-05 20:47 35.92320 138.83365 13514 ft 387 kts 85°
2026-05-05 20:47 35.92731 138.86650 12846 ft 386 kts 85°
2026-05-05 20:47 35.93134 138.89894 12287 ft 381 kts 84°
2026-05-05 20:48 35.93538 138.93106 11762 ft 376 kts 84°
2026-05-05 20:48 35.93931 138.96259 11500 ft 365 kts 85°
2026-05-05 20:48 35.94297 138.99255 11367 ft 350 kts 85°
2026-05-05 20:48 35.94647 139.02163 11238 ft 335 kts 85°
2026-05-05 20:49 35.94981 139.04948 11105 ft 322 kts 85°
2026-05-05 20:49 35.95305 139.07629 10969 ft 309 kts 85°
2026-05-05 20:49 35.95622 139.10205 10846 ft 298 kts 85°
2026-05-05 20:49 35.95936 139.12684 10714 ft 288 kts 85°
2026-05-05 20:50 35.96239 139.15095 10487 ft 281 kts 85°
2026-05-05 20:50 35.96536 139.17473 10204 ft 278 kts 85°
2026-05-05 20:50 35.96704 139.19832 9927 ft 273 kts 96°
2026-05-05 20:50 35.96321 139.22152 9728 ft 281 kts 116°
2026-05-05 20:51 35.95479 139.24327 9535 ft 285 kts 122°
2026-05-05 20:51 35.94527 139.26484 9283 ft 285 kts 123°
2026-05-05 20:51 35.93564 139.28626 8853 ft 285 kts 123°
2026-05-05 20:51 35.92609 139.30751 8532 ft 282 kts 123°
2026-05-05 20:52 35.91655 139.32870 8252 ft 281 kts 123°
2026-05-05 20:52 35.90699 139.34979 7978 ft 280 kts 123°
2026-05-05 20:52 35.89746 139.37079 7703 ft 280 kts 123°
2026-05-05 20:52 35.88798 139.39165 7424 ft 278 kts 123°
2026-05-05 20:53 35.87861 139.41221 7151 ft 277 kts 124°
2026-05-05 20:53 35.86908 139.43315 6870 ft 276 kts 123°
2026-05-05 20:53 35.85979 139.45354 6584 ft 275 kts 124°
2026-05-05 20:53 35.85604 139.46178 6476 ft 275 kts 124°
2026-05-05 20:54 35.84688 139.48187 6196 ft 274 kts 124°
2026-05-05 20:54 35.83754 139.50232 5919 ft 273 kts 124°
2026-05-05 20:54 35.82824 139.52270 5642 ft 272 kts 124°
2026-05-05 20:54 35.81929 139.54240 5518 ft 260 kts 124°
2026-05-05 20:55 35.81066 139.56150 5420 ft 249 kts 125°
2026-05-05 20:55 35.80240 139.57979 5317 ft 238 kts 125°
2026-05-05 20:55 35.79450 139.59726 5210 ft 228 kts 126°
2026-05-05 20:55 35.78696 139.61391 5119 ft 218 kts 126°
2026-05-05 20:56 35.77935 139.62947 5039 ft 203 kts 134°
2026-05-05 20:56 35.76952 139.64059 4942 ft 185 kts 153°
2026-05-05 20:56 35.75883 139.64868 4754 ft 175 kts 157°
2026-05-05 20:56 35.74874 139.65580 4652 ft 163 kts 158°
2026-05-05 20:57 35.73904 139.66239 4404 ft 158 kts 158°
2026-05-05 20:57 35.72920 139.66873 4057 ft 160 kts 158°
2026-05-05 20:57 35.71918 139.67528 3663 ft 166 kts 154°
2026-05-05 20:57 35.70971 139.68357 3364 ft 164 kts 148°
2026-05-05 20:58 35.70050 139.69092 3139 ft 150 kts 156°
2026-05-05 20:58 35.69169 139.69686 2939 ft 138 kts 157°
2026-05-05 20:58 35.68364 139.70256 2786 ft 134 kts 156°
2026-05-05 20:58 35.67559 139.70832 2609 ft 134 kts 156°
2026-05-05 20:59 35.66757 139.71405 2424 ft 133 kts 156°
2026-05-05 20:59 35.65957 139.71975 2244 ft 133 kts 156°
2026-05-05 20:59 35.65157 139.72546 2076 ft 132 kts 155°
2026-05-05 20:59 35.64360 139.73115 1886 ft 131 kts 155°
2026-05-05 21:00 35.63582 139.73670 1716 ft 131 kts 155°
2026-05-05 21:00 35.62793 139.74233 1531 ft 131 kts 154°
2026-05-05 21:00 35.62174 139.74675 1387 ft 132 kts 154°
2026-05-05 21:00 35.61416 139.75215 1218 ft 132 kts 153°
2026-05-05 21:01 35.60617 139.75783 1037 ft 132 kts 153°
2026-05-05 21:01 35.59818 139.76350 850 ft 132 kts 153°
2026-05-05 21:01 35.59014 139.76916 681 ft 133 kts 151°
2026-05-05 21:01 35.58211 139.77485 504 ft 133 kts 150°
2026-05-05 21:02 35.57405 139.78055 315 ft 134 kts 151°
2026-05-05 21:02 35.56614 139.78648 91 ft 132 kts 153°
2026-05-05 21:02 35.55844 139.79186 29 ft 102 kts 149°
2026-05-05 21:02 35.55536 139.79404 30 ft 28 kts 150°
2026-05-05 21:03 35.55359 139.79484 30 ft 26 kts 169°
2026-05-05 21:03 35.55198 139.79494 29 ft 17 kts 192°
2026-05-05 21:03 35.55121 139.79398 29 ft 17 kts 237°
2026-05-05 21:03 35.55052 139.79292 29 ft 12 kts 199°
2026-05-05 21:04 35.55005 139.79299 29 ft 0 kts 163°